Time,TemperatureF,DewpointF,PressureIn,WindDirection,WindDirectionDegrees,WindSpeedMPH,WindSpeedGustMPH,Humidity,HourlyPrecipIn,Conditions,Clouds,dailyrainin,SolarRadiationWatts/m^2,SoftwareType,DateUTC
2013-04-23 00:21:00,33.0,28.0,-100.00,ESE,111,0.0,0.0,80,0.00,,,0.02,0.000000,,2013-04-23 08:21:00,
2013-04-23 00:31:00,33.0,28.0,-100.00,ESE,111,0.0,0.0,80,0.00,,,0.02,0.000000,,2013-04-23 08:31:00,
2013-04-23 00:42:00,33.0,28.0,-100.00,ESE,111,0.0,0.0,80,0.00,,,0.02,0.000000,,2013-04-23 08:42:00,
2013-04-23 00:52:00,33.0,28.0,-100.00,SE,145,0.0,2.0,83,0.00,,,0.02,0.000000,,2013-04-23 08:52:00,
2013-04-23 01:11:00,33.0,28.0,-100.00,SE,145,0.0,2.0,83,0.00,,,0.02,0.000000,,2013-04-23 09:11:00,
2013-04-23 01:21:00,33.0,28.0,-100.00,SE,145,0.0,2.0,83,0.00,,,0.02,0.000000,,2013-04-23 09:21:00,
2013-04-23 01:32:00,33.0,28.0,-100.00,SE,145,0.0,2.0,83,0.00,,,0.02,0.000000,,2013-04-23 09:32:00,
2013-04-23 01:42:00,33.0,28.0,-100.00,SE,145,0.0,2.0,83,0.00,,,0.02,0.000000,,2013-04-23 09:42:00,
2013-04-23 01:52:00,33.0,30.0,-100.00,South,189,1.0,3.0,87,0.00,,,0.02,0.000000,,2013-04-23 09:52:00,
2013-04-23 02:22:00,33.0,30.0,-100.00,South,189,1.0,3.0,87,0.00,,,0.02,0.000000,,2013-04-23 10:22:00,
2013-04-23 02:32:00,33.0,30.0,-100.00,South,189,1.0,3.0,87,0.00,,,0.02,0.000000,,2013-04-23 10:32:00,
2013-04-23 02:42:00,33.0,30.0,-100.00,South,189,1.0,3.0,87,0.00,,,0.02,0.000000,,2013-04-23 10:42:00,
2013-04-23 02:52:00,35.0,34.0,-100.00,NE,52,0.0,4.0,98,0.02,,,0.04,0.000000,,2013-04-23 10:52:00,
2013-04-23 03:12:00,35.0,34.0,-100.00,NE,52,0.0,4.0,98,0.02,,,0.04,0.000000,,2013-04-23 11:12:00,
2013-04-23 03:21:00,35.0,34.0,-100.00,NE,52,0.0,4.0,98,0.02,,,0.04,0.000000,,2013-04-23 11:21:00,
2013-04-23 03:32:00,35.0,34.0,-100.00,NE,52,0.0,4.0,98,0.02,,,0.04,0.000000,,2013-04-23 11:32:00,
2013-04-23 03:42:00,35.0,34.0,-100.00,NE,52,0.0,4.0,98,0.02,,,0.04,0.000000,,2013-04-23 11:42:00,
2013-04-23 04:22:00,34.0,34.0,-100.00,NNE,17,0.0,4.0,98,0.04,,,-99.99,0.000000,,2013-04-23 12:22:00,
2013-04-23 04:32:00,34.0,34.0,-100.00,NNE,17,0.0,4.0,98,0.04,,,-99.99,0.000000,,2013-04-23 12:32:00,
2013-04-23 04:41:00,34.0,34.0,-100.00,NNE,17,0.0,4.0,98,0.04,,,-99.99,0.000000,,2013-04-23 12:41:00,
2013-04-23 04:51:00,34.0,34.0,-100.00,NNE,17,0.0,4.0,98,0.04,,,-99.99,0.000000,,2013-04-23 12:51:00,
2013-04-23 04:52:00,34.0,34.0,-100.00,NNE,21,0.0,3.0,99,0.01,,,0.09,0.000000,,2013-04-23 12:52:00,
2013-04-23 05:11:00,34.0,34.0,-100.00,NNE,21,0.0,3.0,99,0.01,,,0.09,0.000000,,2013-04-23 13:11:00,
2013-04-23 05:21:00,34.0,34.0,-100.00,NNE,21,0.0,3.0,99,0.01,,,0.09,0.000000,,2013-04-23 13:21:00,
2013-04-23 05:32:00,34.0,34.0,-100.00,NNE,21,0.0,3.0,99,0.01,,,0.09,0.000000,,2013-04-23 13:32:00,
2013-04-23 05:41:00,34.0,34.0,-100.00,NNE,21,0.0,3.0,99,0.01,,,0.09,0.000000,,2013-04-23 13:41:00,
2013-04-23 06:11:00,34.0,34.0,-100.00,North,3,1.0,5.0,99,0.03,,,0.12,0.000000,,2013-04-23 14:11:00,
2013-04-23 06:22:00,34.0,34.0,-100.00,North,3,1.0,5.0,99,0.03,,,0.12,0.000000,,2013-04-23 14:22:00,
2013-04-23 06:31:00,34.0,34.0,-100.00,North,3,1.0,5.0,99,0.03,,,0.12,0.000000,,2013-04-23 14:31:00,
2013-04-23 06:42:00,34.0,34.0,-100.00,North,3,1.0,5.0,99,0.03,,,0.12,0.000000,,2013-04-23 14:42:00,
2013-04-23 06:51:00,34.0,34.0,-100.00,North,3,1.0,5.0,99,0.03,,,0.12,0.000000,,2013-04-23 14:51:00,
2013-04-23 06:52:00,33.0,33.0,-100.00,NNW,348,0.0,4.0,99,0.04,,,0.16,1.000000,,2013-04-23 14:52:00,
2013-04-23 07:21:00,33.0,33.0,-100.00,NNW,348,0.0,4.0,99,0.04,,,0.16,1.000000,,2013-04-23 15:21:00,
2013-04-23 07:32:00,33.0,33.0,-100.00,NNW,348,0.0,4.0,99,0.04,,,0.16,1.000000,,2013-04-23 15:32:00,
2013-04-23 07:42:00,33.0,33.0,-100.00,NNW,348,0.0,4.0,99,0.04,,,0.16,1.000000,,2013-04-23 15:42:00,
2013-04-23 07:52:00,34.0,34.0,-100.00,North,5,1.0,3.0,99,0.03,,,0.19,10.000000,,2013-04-23 15:52:00,
2013-04-23 08:12:00,34.0,34.0,-100.00,North,5,1.0,3.0,99,0.03,,,0.19,10.000000,,2013-04-23 16:12:00,
2013-04-23 08:23:00,34.0,34.0,-100.00,North,5,1.0,3.0,99,0.03,,,0.19,10.000000,,2013-04-23 16:23:00,
2013-04-23 08:33:00,34.0,34.0,-100.00,North,5,1.0,3.0,99,0.03,,,0.19,10.000000,,2013-04-23 16:33:00,
2013-04-23 08:42:00,34.0,34.0,-100.00,North,5,1.0,3.0,99,0.03,,,0.19,10.000000,,2013-04-23 16:42:00,
2013-04-23 08:52:00,35.0,35.0,-100.00,North,354,1.0,5.0,99,0.05,,,0.24,35.000000,,2013-04-23 16:52:00,
2013-04-23 09:22:00,35.0,35.0,-100.00,North,354,1.0,5.0,99,0.05,,,0.24,35.000000,,2013-04-23 17:22:00,
2013-04-23 09:32:00,35.0,35.0,-100.00,North,354,1.0,5.0,99,0.05,,,0.24,35.000000,,2013-04-23 17:32:00,
2013-04-23 09:42:00,35.0,35.0,-100.00,North,354,1.0,5.0,99,0.05,,,0.24,35.000000,,2013-04-23 17:42:00,
2013-04-23 09:52:00,35.0,34.0,-100.00,North,357,1.0,5.0,96,0.02,,,0.26,77.000000,,2013-04-23 17:52:00,
2013-04-23 10:22:00,35.0,34.0,-100.00,North,357,1.0,5.0,96,0.02,,,0.26,77.000000,,2013-04-23 18:22:00,
2013-04-23 10:32:00,35.0,34.0,-100.00,North,357,1.0,5.0,96,0.02,,,0.26,77.000000,,2013-04-23 18:32:00,
2013-04-23 10:42:00,35.0,34.0,-100.00,North,357,1.0,5.0,96,0.02,,,0.26,77.000000,,2013-04-23 18:42:00,
2013-04-23 10:52:00,37.0,35.0,-100.00,North,349,1.0,5.0,93,0.02,,,0.27,126.000000,,2013-04-23 18:52:00,
2013-04-23 11:21:00,37.0,35.0,-100.00,North,349,1.0,5.0,93,0.02,,,0.27,126.000000,,2013-04-23 19:21:00,
2013-04-23 11:32:00,37.0,35.0,-100.00,North,349,1.0,5.0,93,0.02,,,0.27,126.000000,,2013-04-23 19:32:00,
2013-04-23 11:42:00,37.0,35.0,-100.00,North,349,1.0,5.0,93,0.02,,,0.27,126.000000,,2013-04-23 19:42:00,
2013-04-23 12:11:00,36.0,34.0,-100.00,NNW,344,1.0,7.0,93,0.02,,,0.29,124.000000,,2013-04-23 20:11:00,
2013-04-23 12:21:00,36.0,34.0,-100.00,NNW,344,1.0,7.0,93,0.02,,,0.29,124.000000,,2013-04-23 20:21:00,
2013-04-23 12:31:00,36.0,34.0,-100.00,NNW,344,1.0,7.0,93,0.02,,,0.29,124.000000,,2013-04-23 20:31:00,
2013-04-23 12:41:00,36.0,34.0,-100.00,NNW,344,1.0,7.0,93,0.02,,,0.29,124.000000,,2013-04-23 20:41:00,
2013-04-23 12:51:00,36.0,34.0,-100.00,NNW,344,1.0,7.0,93,0.02,,,0.29,124.000000,,2013-04-23 20:51:00,
2013-04-23 12:52:00,37.0,35.0,-100.00,North,352,2.0,5.0,92,0.04,,,0.32,133.000000,,2013-04-23 20:52:00,
2013-04-23 13:12:00,37.0,35.0,-100.00,North,352,2.0,5.0,92,0.04,,,0.32,133.000000,,2013-04-23 21:12:00,
2013-04-23 13:21:00,37.0,35.0,-100.00,North,352,2.0,5.0,92,0.04,,,0.32,133.000000,,2013-04-23 21:21:00,
2013-04-23 13:32:00,37.0,35.0,-100.00,North,352,2.0,5.0,92,0.04,,,0.32,133.000000,,2013-04-23 21:32:00,
2013-04-23 13:43:00,37.0,35.0,-100.00,North,352,2.0,5.0,92,0.04,,,0.32,133.000000,,2013-04-23 21:43:00,
2013-04-23 13:52:00,36.0,34.0,-100.00,North,356,0.0,6.0,93,0.07,,,0.39,111.000000,,2013-04-23 21:52:00,
2013-04-23 14:12:00,36.0,34.0,-100.00,North,356,0.0,6.0,93,0.07,,,0.39,111.000000,,2013-04-23 22:12:00,
2013-04-23 14:22:00,36.0,34.0,-100.00,North,356,0.0,6.0,93,0.07,,,0.39,111.000000,,2013-04-23 22:22:00,
2013-04-23 14:33:00,36.0,34.0,-100.00,North,356,0.0,6.0,93,0.07,,,0.39,111.000000,,2013-04-23 22:33:00,
2013-04-23 14:42:00,36.0,34.0,-100.00,North,356,0.0,6.0,93,0.07,,,0.39,111.000000,,2013-04-23 22:42:00,
2013-04-23 14:52:00,38.0,35.0,-100.00,North,0,2.0,4.0,90,0.05,,,0.44,189.000000,,2013-04-23 22:52:00,
2013-04-23 15:12:00,38.0,35.0,-100.00,North,0,2.0,4.0,90,0.05,,,0.44,189.000000,,2013-04-23 23:12:00,
2013-04-23 15:22:00,38.0,35.0,-100.00,North,0,2.0,4.0,90,0.05,,,0.44,189.000000,,2013-04-23 23:22:00,
2013-04-23 15:32:00,38.0,35.0,-100.00,North,0,2.0,4.0,90,0.05,,,0.44,189.000000,,2013-04-23 23:32:00,
2013-04-23 15:42:00,38.0,35.0,-100.00,North,0,2.0,4.0,90,0.05,,,0.44,189.000000,,2013-04-23 23:42:00,
2013-04-23 16:11:00,38.0,35.0,-100.00,WNW,294,1.0,4.0,90,0.01,,,0.45,194.000000,,2013-04-24 00:11:00,
2013-04-23 16:21:00,38.0,35.0,-100.00,WNW,294,1.0,4.0,90,0.01,,,0.45,194.000000,,2013-04-24 00:21:00,
2013-04-23 16:32:00,38.0,35.0,-100.00,WNW,294,1.0,4.0,90,0.01,,,0.45,194.000000,,2013-04-24 00:32:00,
2013-04-23 16:41:00,38.0,35.0,-100.00,WNW,294,1.0,4.0,90,0.01,,,0.45,194.000000,,2013-04-24 00:41:00,
2013-04-23 16:51:00,38.0,35.0,-100.00,WNW,294,1.0,4.0,90,0.01,,,0.45,194.000000,,2013-04-24 00:51:00,
2013-04-23 16:52:00,39.0,36.0,-100.00,NW,324,1.0,4.0,88,0.01,,,0.46,205.000000,,2013-04-24 00:52:00,
2013-04-23 17:21:00,39.0,36.0,-100.00,NW,324,1.0,4.0,88,0.01,,,0.46,205.000000,,2013-04-24 01:21:00,
2013-04-23 17:32:00,39.0,36.0,-100.00,NW,324,1.0,4.0,88,0.01,,,0.46,205.000000,,2013-04-24 01:32:00,
2013-04-23 17:42:00,39.0,36.0,-100.00,NW,324,1.0,4.0,88,0.01,,,0.46,205.000000,,2013-04-24 01:42:00,
2013-04-23 17:52:00,39.0,37.0,-100.00,NW,320,0.0,4.0,91,0.01,,,0.47,168.000000,,2013-04-24 01:52:00,
2013-04-23 18:26:00,39.0,37.0,-100.00,NW,320,0.0,4.0,91,0.01,,,0.47,168.000000,,2013-04-24 02:26:00,
2013-04-23 18:36:00,39.0,37.0,-100.00,NW,320,0.0,4.0,91,0.01,,,0.47,168.000000,,2013-04-24 02:36:00,
2013-04-23 18:46:00,39.0,37.0,-100.00,NW,320,0.0,4.0,91,0.01,,,0.47,168.000000,,2013-04-24 02:46:00,
2013-04-23 19:14:00,37.0,35.0,-100.00,NNW,331,0.0,4.0,93,0.00,,,0.47,94.000000,,2013-04-24 03:14:00,
2013-04-23 19:26:00,37.0,35.0,-100.00,NNW,331,0.0,4.0,93,0.00,,,0.47,94.000000,,2013-04-24 03:26:00,
2013-04-23 19:46:00,37.0,35.0,-100.00,NNW,331,0.0,4.0,93,0.00,,,0.47,94.000000,,2013-04-24 03:46:00,
2013-04-23 19:52:00,36.0,35.0,-100.00,North,349,0.0,3.0,95,0.01,,,0.48,65.000000,,2013-04-24 03:52:00,
2013-04-23 20:12:00,36.0,35.0,-100.00,North,349,0.0,3.0,95,0.01,,,0.48,65.000000,,2013-04-24 04:12:00,
2013-04-23 20:22:00,36.0,35.0,-100.00,North,349,0.0,3.0,95,0.01,,,0.48,65.000000,,2013-04-24 04:22:00,
2013-04-23 20:33:00,36.0,35.0,-100.00,North,349,0.0,3.0,95,0.01,,,0.48,65.000000,,2013-04-24 04:33:00,
2013-04-23 20:43:00,36.0,35.0,-100.00,North,349,0.0,3.0,95,0.01,,,0.48,65.000000,,2013-04-24 04:43:00,
2013-04-23 21:21:00,36.0,35.0,-100.00,West,279,0.0,1.0,96,0.00,,,0.48,53.000000,,2013-04-24 05:21:00,
2013-04-23 21:32:00,36.0,35.0,-100.00,West,279,0.0,1.0,96,0.00,,,0.48,53.000000,,2013-04-24 05:32:00,
2013-04-23 21:42:00,36.0,35.0,-100.00,West,279,0.0,1.0,96,0.00,,,0.48,53.000000,,2013-04-24 05:42:00,
2013-04-23 21:51:00,36.0,35.0,-100.00,West,279,0.0,1.0,96,0.00,,,0.48,53.000000,,2013-04-24 05:51:00,
2013-04-23 22:12:00,35.0,34.0,-100.00,West,267,0.0,1.0,98,0.00,,,0.48,11.000000,,2013-04-24 06:12:00,
2013-04-23 22:21:00,35.0,34.0,-100.00,West,267,0.0,1.0,98,0.00,,,0.48,11.000000,,2013-04-24 06:21:00,
2013-04-23 22:32:00,35.0,34.0,-100.00,West,267,0.0,1.0,98,0.00,,,0.48,11.000000,,2013-04-24 06:32:00,
2013-04-23 22:41:00,35.0,34.0,-100.00,West,267,0.0,1.0,98,0.00,,,0.48,11.000000,,2013-04-24 06:41:00,
2013-04-23 22:51:00,35.0,34.0,-100.00,West,267,0.0,1.0,98,0.00,,,0.48,11.000000,,2013-04-24 06:51:00,
2013-04-23 22:52:00,34.0,34.0,-100.00,ESE,106,0.0,0.0,99,0.00,,,0.48,0.000000,,2013-04-24 06:52:00,
2013-04-23 23:11:00,34.0,34.0,-100.00,ESE,106,0.0,0.0,99,0.00,,,0.48,0.000000,,2013-04-24 07:11:00,
2013-04-23 23:22:00,34.0,34.0,-100.00,ESE,106,0.0,0.0,99,0.00,,,0.48,0.000000,,2013-04-24 07:22:00,
2013-04-23 23:32:00,34.0,34.0,-100.00,ESE,106,0.0,0.0,99,0.00,,,0.48,0.000000,,2013-04-24 07:32:00,
2013-04-23 23:41:00,34.0,34.0,-100.00,ESE,106,0.0,0.0,99,0.00,,,0.48,0.000000,,2013-04-24 07:41:00,